Qianfan Jigui 06-02

operational
NORAD ID: 62786 Int'l Des: 2025-016 Owner: YUANX Country: CN Constellation: qianfan
LEOCIRCULARPOLAR

About Qianfan Jigui 06-02

Description loading...

Live Position

Loading 3D Globe...

Upcoming Passes

Altitude History

Altitude vs Time

uPlot chart will show altitude changes over time

Two-Line Element Set

1 62786U 25016B 25312.79670015 .00000048 00000-0 55615-4 0 9999
2 62786 88.9725 106.5585 0017643 89.7882 270.5291 13.50978531 42658
Epoch: Nov 8, 2025 • Age: 37 hours

Current Status

Altitude 1110.4 km
Velocity 7.29 km/s
Sub-Earth Point -83.49°S, 126.09°E
Launch Date Jan 23, 2025
Age 0.7 years
Type internet

Technical Details

Classification Payload
Mass 267.00 kg
Dry Mass 267.00 kg
Total Mass 267.00 kg
Length 0.30 m
Diameter 3.00 m
Span 10.00 m
Shape Box+pan
Manufacturer SECM
Bus Type Qianfan
Phase Status In Orbit
Owner/State YUANX/CN

Large Constellations

Loading constellations...